When you browse on this site, cookies collect data to enhance your experience and personalize the content and advertising you see.
Visit our Privacy Policy to learn more. By continuing to use the site, you agree to this use of cookies and data.
  • In United Kingdom
  • List of Countries
  • For 7 days
  • Water Temperature
  • Satellite Maps
  • Weather Map
  • Weather Widgets
  • user-avatar
    Login

    Hourly Weather Ovcharenky

    Today, 19 April, Friday

    Time Temperature Precipitation Wind Pressure Humidity
    00:00 +6°C° 0 mm 2 mps 756 mmHg 53%
    01:00 +6°C° 0 mm 2 mps 756 mmHg 54%
    02:00 +7°C° 0 mm 1 mps 756 mmHg 54%
    03:00 +5°C° 0 mm 2 mps 756 mmHg 55%
    04:00 +5°C° 0 mm 2 mps 756 mmHg 56%
    05:00 +5°C° 0 mm 2 mps 756 mmHg 57%
    06:00 +6°C° 0 mm 2 mps 756 mmHg 53%
    07:00 +7°C° 0 mm 2 mps 757 mmHg 50%
    08:00 +9°C° 0 mm 3 mps 757 mmHg 46%
    09:00 +9°C° 0 mm 3 mps 757 mmHg 44%
    10:00 +10°C° 0 mm 4 mps 757 mmHg 41%
    11:00 +11°C° 0 mm 4 mps 758 mmHg 39%
    12:00 +11°C° 0 mm 4 mps 758 mmHg 40%
    13:00 +11°C° 0 mm 4 mps 758 mmHg 40%
    14:00 +11°C° 0 mm 4 mps 758 mmHg 40%
    15:00 +11°C° 0 mm 3 mps 758 mmHg 42%
    16:00 +11°C° 0 mm 3 mps 758 mmHg 43%
    17:00 +11°C° 0 mm 3 mps 758 mmHg 45%
    18:00 +9°C° 0 mm 3 mps 758 mmHg 50%
    19:00 +8°C° 0 mm 2 mps 758 mmHg 54%
    20:00 +7°C° 0 mm 2 mps 758 mmHg 59%
    21:00 +7°C° 0 mm 2 mps 758 mmHg 60%
    22:00 +6°C° 0 mm 2 mps 758 mmHg 62%
    23:00 +6°C° 0 mm 2 mps 758 mmHg 63%

    Tomorrow, 20 April, Saturday

    Time Temperature Precipitation Wind Pressure Humidity
    00:00 +5°C° 0 mm 2 mps 758 mmHg 65%
    01:00 +5°C° 0 mm 2 mps 758 mmHg 67%
    02:00 +6°C° 0 mm 1 mps 758 mmHg 69%
    03:00 +5°C° 0 mm 1 mps 758 mmHg 69%
    04:00 +5°C° 0 mm 1 mps 758 mmHg 70%
    05:00 +5°C° 0 mm 1 mps 758 mmHg 71%
    06:00 +7°C° 0 mm 1 mps 758 mmHg 65%
    07:00 +8°C° 0 mm 1 mps 758 mmHg 59%
    08:00 +10°C° 0 mm 1 mps 758 mmHg 53%
    09:00 +11°C° 0 mm 1 mps 758 mmHg 47%
    10:00 +12°C° 0 mm 1 mps 758 mmHg 41%
    11:00 +13°C° 0 mm 1 mps 758 mmHg 35%
    12:00 +13°C° 0 mm 1 mps 758 mmHg 36%
    13:00 +13°C° 0 mm 1 mps 757 mmHg 36%
    14:00 +13°C° 0 mm 1 mps 757 mmHg 37%
    15:00 +13°C° 0 mm 1 mps 757 mmHg 37%
    16:00 +11°C° 0 mm 0 mps 757 mmHg 38%
    17:00 +11°C° 0 mm 0 mps 756 mmHg 39%
    18:00 +11°C° 0 mm 0 mps 757 mmHg 42%
    19:00 +10°C° 0 mm 0 mps 757 mmHg 44%
    20:00 +10°C° 0 mm 0 mps 757 mmHg 47%
    21:00 +9°C° 0 mm 0 mps 757 mmHg 47%
    22:00 +10°C° 0 mm 1 mps 757 mmHg 48%
    23:00 +10°C° 0 mm 1 mps 757 mmHg 48%

    Day after tomorrow, 21 April, Sunday

    Time Temperature Precipitation Wind Pressure Humidity
    00:00 +9°C° 0 mm 1 mps 757 mmHg 49%
    01:00 +9°C° 0 mm 1 mps 757 mmHg 50%
    02:00 +9°C° 0 mm 1 mps 757 mmHg 51%
    03:00 +8°C° 0 mm 1 mps 757 mmHg 52%
    04:00 +8°C° 0 mm 1 mps 757 mmHg 53%
    05:00 +8°C° 0 mm 1 mps 757 mmHg 54%
    06:00 +9°C° 0 mm 1 mps 757 mmHg 52%
    07:00 +9°C° 0 mm 2 mps 757 mmHg 49%
    08:00 +12°C° 0 mm 2 mps 757 mmHg 46%
    09:00 +12°C° 0 mm 2 mps 757 mmHg 43%
    10:00 +12°C° 0 mm 3 mps 757 mmHg 40%
    11:00 +12°C° 0 mm 3 mps 757 mmHg 37%
    12:00 +12°C° 0 mm 3 mps 757 mmHg 36%
    13:00 +12°C° 0 mm 3 mps 757 mmHg 36%
    14:00 +14°C° 0 mm 2 mps 757 mmHg 36%
    15:00 +13°C° 0 mm 2 mps 757 mmHg 38%
    16:00 +13°C° 0 mm 2 mps 757 mmHg 40%
    17:00 +13°C° 0 mm 2 mps 757 mmHg 42%
    18:00 +12°C° 0 mm 2 mps 758 mmHg 46%
    19:00 +9°C° 0 mm 2 mps 758 mmHg 50%
    20:00 +8°C° 0 mm 2 mps 758 mmHg 54%
    21:00 +8°C° 0 mm 2 mps 758 mmHg 55%
    22:00 +7°C° 0 mm 2 mps 758 mmHg 56%
    23:00 +7°C° 0 mm 2 mps 759 mmHg 58%

    22 April, Monday

    Time Temperature Precipitation Wind Pressure Humidity
    00:00 +7°C° 0 mm 2 mps 759 mmHg 57%
    01:00 +7°C° 0 mm 2 mps 759 mmHg 57%
    02:00 +7°C° 0 mm 2 mps 759 mmHg 57%
    03:00 +7°C° 0 mm 2 mps 759 mmHg 58%
    04:00 +7°C° 0 mm 2 mps 759 mmHg 59%
    05:00 +7°C° 0 mm 2 mps 759 mmHg 60%
    06:00 +8°C° 0 mm 2 mps 760 mmHg 57%
    07:00 +9°C° 0 mm 2 mps 760 mmHg 55%
    08:00 +12°C° 0 mm 2 mps 760 mmHg 52%
    09:00 +11°C° 0 mm 3 mps 760 mmHg 47%
    10:00 +12°C° 0 mm 3 mps 760 mmHg 42%
    11:00 +13°C° 0 mm 3 mps 761 mmHg 38%
    12:00 +13°C° 0 mm 3 mps 760 mmHg 38%
    13:00 +14°C° 0 mm 2 mps 760 mmHg 38%
    14:00 +14°C° 0 mm 2 mps 760 mmHg 38%
    15:00 +14°C° 0 mm 2 mps 760 mmHg 41%
    16:00 +14°C° 0 mm 2 mps 760 mmHg 44%
    17:00 +14°C° 0 mm 2 mps 760 mmHg 47%
    18:00 +12°C° 0 mm 2 mps 760 mmHg 50%
    19:00 +11°C° 0 mm 1 mps 761 mmHg 53%
    20:00 +10°C° 0 mm 1 mps 761 mmHg 55%
    21:00 +9°C° 0 mm 1 mps 761 mmHg 57%
    22:00 +9°C° 0 mm 1 mps 761 mmHg 58%
    23:00 +8°C° 0 mm 1 mps 761 mmHg 59%

    23 April, Tuesday

    Time Temperature Precipitation Wind Pressure Humidity
    00:00 +8°C° 0 mm 1 mps 762 mmHg 60%
    01:00 +8°C° 0 mm 1 mps 762 mmHg 62%
    02:00 +7°C° 0 mm 1 mps 762 mmHg 63%
    03:00 +6°C° 0 mm 2 mps 762 mmHg 65%
    04:00 +6°C° 0 mm 2 mps 762 mmHg 66%
    05:00 +6°C° 0 mm 2 mps 762 mmHg 67%
    06:00 +8°C° 0 mm 2 mps 762 mmHg 62%
    07:00 +10°C° 0 mm 2 mps 763 mmHg 56%
    08:00 +13°C° 0 mm 2 mps 763 mmHg 51%
    09:00 +14°C° 0 mm 2 mps 763 mmHg 46%
    10:00 +15°C° 0 mm 2 mps 763 mmHg 42%
    11:00 +16°C° 0 mm 2 mps 763 mmHg 37%
    12:00 +15°C° 0 mm 2 mps 763 mmHg 38%
    13:00 +15°C° 0 mm 1 mps 762 mmHg 39%
    14:00 +15°C° 0 mm 1 mps 762 mmHg 40%
    15:00 +15°C° 0 mm 1 mps 762 mmHg 41%
    16:00 +15°C° 0 mm 1 mps 762 mmHg 42%
    17:00 +15°C° 0 mm 1 mps 762 mmHg 43%
    18:00 +14°C° 0 mm 1 mps 762 mmHg 46%
    19:00 +13°C° 0 mm 1 mps 762 mmHg 50%
    20:00 +11°C° 0 mm 1 mps 762 mmHg 53%
    21:00 +11°C° 0 mm 1 mps 762 mmHg 54%
    22:00 +9°C° 0 mm 0 mps 762 mmHg 56%
    23:00 +8°C° 0 mm 0 mps 762 mmHg 58%

    24 April, Wednesday

    Time Temperature Precipitation Wind Pressure Humidity
    00:00 +8°C° 0 mm 0 mps 762 mmHg 58%
    01:00 +8°C° 0 mm 0 mps 762 mmHg 59%
    02:00 +8°C° 0 mm 0 mps 763 mmHg 60%
    03:00 +8°C° 0 mm 1 mps 763 mmHg 61%
    04:00 +8°C° 0 mm 1 mps 763 mmHg 63%
    05:00 +8°C° 0 mm 1 mps 763 mmHg 64%
    06:00 +10°C° 0 mm 1 mps 763 mmHg 60%
    07:00 +12°C° 0 mm 1 mps 763 mmHg 56%
    08:00 +14°C° 0 mm 2 mps 763 mmHg 52%
    09:00 +15°C° 0 mm 2 mps 763 mmHg 48%
    10:00 +16°C° 0 mm 2 mps 762 mmHg 44%
    11:00 +17°C° 0 mm 2 mps 762 mmHg 41%
    12:00 +18°C° 0 mm 2 mps 762 mmHg 40%
    13:00 +18°C° 0 mm 2 mps 762 mmHg 38%
    14:00 +19°C° 0 mm 2 mps 761 mmHg 37%
    15:00 +19°C° 0 mm 2 mps 761 mmHg 39%
    16:00 +20°C° 0 mm 1 mps 761 mmHg 40%
    17:00 +20°C° 0 mm 1 mps 760 mmHg 42%
    18:00 +18°C° 0 mm 1 mps 760 mmHg 46%
    19:00 +16°C° 0 mm 1 mps 760 mmHg 50%
    20:00 +14°C° 0 mm 1 mps 760 mmHg 54%
    21:00 +13°C° 0 mm 1 mps 760 mmHg 56%
    22:00 +13°C° 0 mm 1 mps 760 mmHg 58%
    23:00 +12°C° 0 mm 1 mps 761 mmHg 61%
    Show more